GFSSE_sfc_30mbdewp_117.txt.gz
Dewpoint
66 70 70 70 70 71 72 71 71 71 71 71 72 71 71 71 71 71 72 72 72 72 71 71 70 70 69 69 69 69 69 69 69 69 69 68 68 68 69 69 68 68 68
67 70 70 70 70 70 70 71 71 71 72 72 72 71 71 71 71 71 71 72 72 71 71 70 70 69 69 69 69 70 70 69 69 69 68 68 68 67 68 68 68 68 68
68 70 70 70 70 70 70 71 72 72 72 72 72 71 71 71 71 70 70 71 72 72 71 70 70 70 69 69 69 69 69 68 68 67 68 67 68 68 68 68 68 68 67
67 69 69 69 70 70 70 71 72 72 72 72 72 71 71 71 71 70 70 69 70 69 69 70 69 70 69 68 68 68 68 68 67 67 66 65 66 68 68 67 68 67 66
66 68 69 69 70 70 71 71 72 72 72 72 72 71 71 71 71 70 69 69 70 70 70 69 70 70 68 68 67 67 67 67 66 65 65 65 66 67 67 67 67 66 66
66 68 68 69 69 70 71 72 72 71 70 72 71 72 71 71 71 70 69 69 71 70 70 70 70 69 68 67 67 67 66 65 65 64 64 66 65 66 66 66 66 66 66
66 67 68 68 69 70 71 72 71 70 69 71 71 72 71 71 70 70 69 69 69 68 70 68 69 68 67 67 67 66 66 65 64 63 64 65 66 65 65 65 66 66 65
66 67 68 69 69 70 71 71 71 71 71 71 71 71 71 70 70 69 69 69 69 68 67 67 67 67 67 67 66 65 65 64 63 64 64 64 65 65 65 65 65 65 64
68 67 68 69 69 69 70 71 71 71 71 71 71 71 71 70 69 69 69 68 67 66 66 66 66 67 67 66 66 65 64 63 62 62 57 64 65 65 65 65 64 64 63
68 67 67 68 68 68 69 70 70 70 70 69 70 69 70 69 68 68 68 68 67 65 65 66 66 66 66 66 65 64 64 63 62 63 64 64 64 64 64 64 64 62 62
68 68 68 68 68 67 67 68 69 70 70 69 70 67 69 69 68 68 67 66 66 65 65 65 65 66 66 65 64 64 63 62 62 64 63 62 64 64 64 64 62 62 61
66 67 68 68 67 67 67 68 68 69 69 69 70 68 69 69 68 68 67 66 66 65 65 64 65 65 65 64 63 63 62 63 63 63 62 62 64 63 63 63 62 61 60
63 66 67 67 67 67 67 67 67 68 68 68 69 69 68 68 68 67 66 65 65 64 65 65 65 64 64 62 61 62 62 62 63 61 61 62 63 63 62 62 62 61 60
61 62 66 67 67 67 66 66 67 67 67 67 67 68 67 67 66 65 65 65 64 63 63 64 63 63 64 63 62 62 62 62 62 61 60 62 62 62 62 61 61 61 60
59 60 63 65 66 66 65 67 66 66 67 67 66 67 67 67 66 65 64 65 64 63 63 63 63 62 63 63 63 63 62 61 61 61 62 63 62 62 62 61 61 60 59
58 58 59 63 65 65 64 65 65 66 66 66 66 66 66 67 66 65 64 64 64 64 63 63 62 62 63 62 62 63 62 61 61 60 60 61 62 62 61 61 60 60 58
45 57 57 62 64 65 63 65 64 66 66 66 66 67 67 66 66 65 64 64 64 64 63 63 63 63 62 62 61 62 62 61 61 61 62 61 61 60 61 60 60 59 58
31 50 57 61 64 65 64 64 65 67 66 66 67 66 67 67 66 65 65 64 64 63 62 63 62 62 62 62 61 61 61 61 61 61 62 61 61 59 59 59 59 59 59
31 35 57 62 64 64 65 65 64 64 67 66 66 66 65 66 66 65 65 64 64 63 62 62 62 61 61 61 61 61 60 60 60 61 61 60 59 58 58 58 58 58 59
27 35 55 61 64 64 65 65 65 63 64 65 66 66 65 65 66 65 64 64 64 62 61 62 61 61 61 60 60 60 60 60 60 60 60 59 59 58 58 58 59 59 59
33 38 52 63 64 65 64 64 64 63 63 63 64 65 65 65 65 65 64 63 64 62 62 62 61 61 60 60 59 59 59 60 59 59 59 58 58 57 58 58 59 59 58
39 42 45 60 65 65 65 64 64 64 64 63 63 63 64 64 64 65 64 62 63 62 62 61 60 59 59 60 57 55 53 55 58 59 58 57 57 57 57 58 57 57 58
41 42 42 46 55 62 63 64 63 63 62 62 61 62 63 63 64 64 63 62 62 61 60 60 59 58 57 58 58 54 52 51 54 57 57 56 56 56 56 56 56 56 56
42 46 46 49 50 50 52 60 61 61 61 61 61 61 61 63 63 63 63 62 61 60 59 59 59 58 56 55 58 57 55 54 51 51 55 55 55 54 56 56 55 56 56
44 46 48 49 49 50 50 53 60 60 61 61 61 61 60 62 63 63 62 62 61 60 59 59 59 58 57 56 56 56 54 54 54 51 50 53 54 54 55 55 55 55 54
45 46 46 46 46 47 50 52 60 60 60 60 60 60 60 60 62 62 62 62 61 60 59 58 58 58 57 56 56 56 54 53 52 51 50 52 52 53 53 54 54 54 54

GFSSE_sfc_30mbdewp_123.txt.gz
Dewpoint
65 69 71 71 71 71 70 70 70 70 71 71 71 71 71 72 72 72 72 72 72 71 70 69 70 70 69 68 68 67 67 67 69 69 69 69 69 69 69 69 69 68 68
66 70 71 71 71 71 70 70 70 70 71 71 71 71 71 72 72 72 72 72 71 70 70 70 70 69 69 69 68 68 69 69 69 68 68 69 69 69 69 69 68 68 68
67 69 71 71 71 71 71 70 71 71 71 71 71 71 71 72 72 72 72 72 71 70 70 70 70 69 69 69 69 69 69 69 69 68 69 68 68 68 68 68 68 68 68
68 69 70 71 71 71 71 71 71 71 71 71 71 71 71 72 72 72 72 72 71 71 70 69 69 69 69 68 69 69 68 68 68 67 68 68 66 67 68 68 68 67 67
68 69 69 70 70 71 71 71 71 71 71 71 71 71 71 71 71 71 71 71 71 71 70 69 69 69 68 68 68 68 67 67 66 66 66 66 66 67 67 67 67 67 67
68 68 69 69 69 70 71 71 71 71 70 70 70 71 70 70 70 70 70 70 71 71 70 69 69 68 67 67 67 67 65 65 65 65 66 66 66 67 67 67 67 66 65
67 68 68 68 69 70 71 71 71 71 70 70 71 71 71 70 69 69 69 69 69 70 71 70 68 67 67 67 66 66 64 65 64 64 65 65 66 67 67 67 66 65 65
66 67 68 68 69 70 71 71 71 70 70 70 70 70 70 70 69 68 69 69 69 70 69 68 67 67 66 66 66 65 63 64 64 64 64 64 64 66 66 66 66 65 64
66 67 68 69 70 70 70 70 70 70 70 70 70 70 70 70 69 68 69 69 69 69 68 67 67 66 66 66 65 64 63 63 63 63 63 65 65 66 66 65 64 64 64
66 66 67 68 69 69 70 69 68 69 70 70 70 69 69 69 69 68 68 69 68 68 68 67 66 66 66 66 65 64 63 62 61 63 63 64 66 65 65 65 64 64 63
64 65 66 67 67 68 68 69 69 69 69 69 69 69 69 68 69 68 68 68 68 67 67 67 66 66 66 66 65 63 62 62 58 62 63 65 65 65 65 65 64 63 62
62 64 66 66 66 67 67 69 69 69 69 69 69 69 69 68 68 68 68 68 67 66 66 65 65 65 65 64 64 63 62 61 60 61 62 64 65 65 65 65 64 63 62
61 63 65 66 66 67 67 67 67 67 67 68 68 68 68 68 67 67 67 67 67 66 65 65 64 64 64 63 63 61 61 61 62 61 61 64 65 65 64 64 63 62 62
60 62 64 65 65 66 66 65 65 65 66 66 67 66 67 67 67 66 66 66 66 65 64 64 63 63 63 63 61 61 61 61 62 61 60 63 65 64 64 64 63 62 61
62 62 64 65 65 65 65 66 65 65 65 65 66 67 67 66 66 66 65 65 65 64 64 63 62 62 62 62 61 60 61 61 61 61 61 63 64 63 64 63 63 62 61
63 63 63 64 64 65 65 64 65 65 66 66 66 67 67 67 66 66 65 64 64 63 63 63 62 61 61 61 61 60 61 61 61 60 60 62 63 63 62 63 62 62 61
62 64 65 64 64 64 64 64 64 64 65 65 65 66 67 66 66 65 65 64 64 63 62 62 61 61 60 61 61 61 61 61 60 59 59 60 62 62 63 62 63 63 61
60 61 65 65 64 64 64 65 64 64 65 64 65 65 66 66 66 65 64 64 64 63 62 62 61 60 60 60 60 61 61 61 60 60 59 60 61 62 62 62 63 62 61
59 60 62 65 65 65 65 65 65 65 65 65 65 65 65 66 66 65 64 64 63 63 62 61 61 60 60 60 60 60 61 61 60 60 60 60 61 61 62 62 62 61 60
54 59 60 64 65 65 65 64 64 65 65 66 65 65 65 65 66 65 65 64 63 62 62 62 61 61 61 60 60 60 60 61 60 60 60 61 60 61 62 62 62 61 60
33 52 59 60 63 65 64 63 63 64 64 65 66 65 65 66 65 65 65 64 63 62 61 61 60 60 60 61 59 59 59 60 60 60 60 60 60 60 60 60 60 60 59
28 32 54 58 61 64 64 63 63 64 64 65 65 66 65 66 65 65 64 64 64 63 61 61 61 60 60 61 58 57 55 56 58 59 60 60 60 60 59 59 59 58 58
30 34 45 55 59 62 63 63 62 62 62 63 64 64 65 65 65 65 64 64 63 63 61 61 61 60 58 60 59 55 53 51 54 58 58 59 59 59 59 58 58 58 58
50 55 58 59 60 62 63 63 62 61 61 62 62 64 64 65 65 65 64 64 64 63 62 62 62 61 59 58 59 58 55 53 51 51 56 58 59 59 59 58 58 58 57
45 46 47 49 50 53 56 59 60 60 61 61 61 62 62 64 64 64 64 64 63 63 63 62 61 60 59 58 58 57 56 54 54 52 51 54 57 58 58 58 58 57 57
42 43 43 43 44 45 47 47 48 49 51 57 60 61 61 62 63 63 64 63 63 62 62 62 61 60 59 58 58 56 55 54 53 53 52 54 54 56 57 58 57 56 57

GFSSE_sfc_30mbdewp_129.txt.gz
Dewpoint
63 68 71 71 71 70 70 71 71 72 72 72 71 71 71 72 72 72 72 72 71 71 70 69 69 69 70 69 69 68 68 68 69 70 70 69 69 69 69 69 68 67 68
65 68 71 71 71 70 70 70 71 72 72 72 72 72 72 72 72 72 72 71 71 70 69 69 70 69 69 69 68 68 69 69 68 69 68 69 69 68 68 67 68 68 69
66 68 70 71 71 70 70 70 71 72 72 72 72 72 72 72 72 72 71 71 71 70 69 69 69 69 69 69 69 69 69 69 68 68 67 66 67 68 68 69 68 68 67
67 68 69 71 71 71 70 70 71 72 72 72 72 72 72 72 72 72 71 71 71 71 70 69 69 69 70 69 69 69 69 68 68 67 65 65 66 68 68 68 67 68 67
67 68 69 70 70 71 70 70 71 71 71 71 71 72 72 72 72 72 71 71 71 70 70 69 69 69 69 69 69 68 68 68 67 65 65 65 65 67 68 66 67 66 66
67 67 70 70 70 70 70 70 71 70 70 71 71 71 72 72 72 71 71 71 71 70 69 69 69 68 68 68 68 67 67 67 66 65 64 65 66 67 66 67 67 66 66
67 68 69 70 70 70 71 70 70 70 70 70 71 71 72 72 72 71 71 71 70 70 69 69 68 68 67 67 66 66 66 66 65 65 65 65 65 67 67 67 66 66 65
67 69 69 69 70 70 71 70 70 69 69 70 71 71 71 71 71 70 71 71 70 70 69 68 67 67 67 66 65 65 64 65 64 65 65 65 66 66 66 66 65 65 65
67 68 69 69 69 70 70 70 69 69 69 69 70 70 71 70 70 70 70 70 70 69 68 67 67 67 67 65 64 64 64 64 64 63 64 64 66 66 66 65 65 65 64
67 67 68 69 70 69 70 70 69 68 68 69 69 69 69 69 69 69 69 70 70 68 67 66 66 66 66 66 64 63 63 63 63 63 63 63 66 65 66 65 64 64 63
65 66 67 68 68 69 69 69 69 68 68 68 68 69 68 68 68 68 68 69 69 68 66 66 66 66 66 65 64 63 62 61 63 63 63 64 65 65 65 65 64 63 63
63 65 65 66 67 67 67 68 69 68 67 68 68 68 68 68 67 67 68 68 68 67 66 66 65 65 65 65 64 63 63 62 62 63 63 64 66 65 65 63 64 63 63
61 63 65 65 66 65 65 67 68 68 68 68 68 68 68 68 68 67 68 68 68 67 66 64 64 64 65 65 64 64 63 63 62 63 62 63 65 65 64 64 65 64 63
58 62 64 64 65 65 65 65 66 66 67 67 67 68 68 67 68 67 66 68 67 66 66 65 65 64 64 65 64 64 63 63 62 61 61 61 64 65 64 65 64 63 63
56 60 62 63 64 64 65 65 65 65 66 66 66 67 67 66 66 67 67 67 67 66 65 65 64 63 63 63 63 63 62 62 62 62 62 61 63 63 64 65 64 64 63
55 57 62 62 63 63 64 65 64 65 66 66 66 66 67 66 66 66 66 66 67 66 66 65 64 63 63 63 63 63 62 62 62 62 62 62 60 63 63 63 64 63 63
56 56 61 62 62 63 63 64 64 64 64 65 65 66 66 66 65 65 65 66 66 67 66 65 64 63 63 63 62 62 62 62 61 61 62 62 61 61 62 62 62 63 63
55 57 59 62 63 63 63 63 63 64 64 64 64 64 66 66 65 65 64 65 66 67 66 65 64 63 62 62 62 62 62 62 61 61 61 61 61 61 62 62 62 61 62
50 59 58 61 62 63 64 63 63 63 63 63 63 63 65 65 65 65 64 64 66 65 65 65 64 63 62 62 61 61 62 62 61 61 61 61 60 60 61 62 61 61 61
45 60 61 60 61 63 63 63 63 62 62 63 62 63 64 64 64 64 65 65 65 65 64 64 63 63 62 62 60 60 61 61 62 63 61 60 60 60 60 60 61 62 61
40 59 62 61 60 62 62 62 61 61 62 63 63 64 65 64 63 64 64 65 65 64 63 63 63 62 62 62 60 59 60 61 61 62 61 60 60 60 61 60 61 62 61
32 55 61 63 62 61 60 61 61 62 62 62 63 63 64 64 65 65 64 64 64 63 63 62 62 61 61 61 59 58 56 58 59 60 61 60 60 60 60 60 60 61 61
34 41 58 62 63 62 61 61 61 63 63 63 62 62 63 64 64 64 64 64 64 64 62 62 62 62 60 61 61 58 55 52 55 58 58 59 59 60 60 60 61 60 61
34 39 54 60 62 64 63 63 62 61 60 61 61 63 63 64 64 64 65 64 64 64 63 63 63 63 62 59 60 60 56 55 52 51 56 57 58 59 59 60 60 60 61
50 45 53 60 62 64 64 64 63 62 63 63 63 63 64 64 65 64 64 64 64 64 64 63 63 63 63 61 60 59 58 55 55 52 51 54 57 57 57 58 59 59 60
45 48 50 51 50 52 58 62 63 63 62 62 63 62 62 63 60 58 58 57 62 64 64 64 63 63 63 62 61 60 58 56 55 54 53 54 53 54 56 59 59 60 60

GFSSE_sfc_30mbdewp_132.txt.gz
Dewpoint
57 66 71 71 71 70 71 72 72 72 71 71 72 72 72 72 72 72 72 72 71 71 70 69 71 71 70 69 69 70 69 70 71 71 70 69 69 68 68 67 67 66 69
58 67 71 71 70 70 71 72 72 72 71 72 72 72 72 72 72 72 72 72 72 71 69 69 70 71 69 69 68 69 69 69 70 69 69 69 69 67 67 66 66 68 69
61 66 70 70 70 70 71 72 72 72 72 72 72 72 72 72 72 72 72 71 71 71 69 69 69 69 69 69 69 69 69 69 69 68 67 63 63 67 68 68 68 68 68
63 67 68 70 70 70 71 72 72 72 72 72 72 72 72 72 72 71 71 71 71 70 69 69 69 69 69 69 69 69 69 68 67 66 64 61 62 68 68 68 67 66 67
64 66 68 70 70 69 70 71 72 72 72 72 72 72 72 72 72 71 71 71 71 71 70 69 69 70 69 69 69 68 68 67 66 65 60 62 62 67 67 67 66 66 65
64 65 70 70 70 70 70 71 72 72 72 71 71 72 72 72 72 71 71 71 71 71 70 69 70 69 68 68 68 68 67 66 64 59 60 63 62 67 66 66 66 65 65
64 65 70 70 70 70 70 70 71 71 71 71 71 72 72 72 71 71 70 71 71 70 70 70 69 68 68 67 67 67 66 65 60 58 59 61 65 67 67 67 66 66 65
66 67 69 69 70 70 70 70 70 70 70 71 71 71 72 71 71 71 70 71 70 70 70 69 68 67 67 66 66 65 65 64 60 60 59 60 66 67 67 66 66 65 65
67 68 69 68 69 70 70 69 69 69 70 70 71 71 71 71 70 70 71 70 70 69 68 67 67 67 66 65 65 64 64 64 60 59 58 59 65 67 66 65 65 65 64
66 67 68 68 68 68 68 69 68 68 69 70 70 70 70 70 70 70 70 70 69 68 67 67 67 66 65 65 64 64 63 63 58 59 59 62 64 64 65 65 64 64 64
65 66 67 67 67 67 68 68 68 68 68 69 69 70 69 67 68 69 68 70 69 67 67 66 66 66 66 64 63 63 63 57 58 58 58 63 65 64 65 64 64 63 62
63 64 65 66 66 66 65 67 67 66 66 66 66 68 66 65 66 66 67 69 68 67 66 66 66 66 65 63 63 63 60 58 59 58 58 63 65 65 65 64 64 63 62
59 62 63 65 66 65 64 66 65 65 65 65 65 66 65 65 65 65 66 67 66 66 63 64 65 63 61 60 60 60 59 61 58 58 60 63 65 65 65 64 64 63 63
51 60 62 63 65 65 62 65 66 65 64 64 65 66 65 65 65 65 65 65 64 64 62 61 60 60 61 62 61 61 62 60 58 58 60 62 64 65 64 64 63 64 64
41 56 60 62 63 64 64 62 64 64 65 64 65 68 66 65 65 64 64 64 64 63 62 62 61 61 62 62 61 61 61 61 60 58 58 60 61 63 65 64 64 64 64
37 49 57 60 63 63 63 63 64 66 64 65 65 67 68 65 65 65 65 64 65 65 63 62 61 61 60 60 61 61 60 59 60 60 58 59 60 62 63 64 63 64 63
30 46 51 60 62 63 64 63 64 64 65 66 66 67 67 66 65 65 65 64 64 65 64 63 62 62 60 60 60 61 60 61 59 60 60 58 59 59 60 62 63 62 63
24 28 48 56 60 62 63 62 62 62 65 65 65 66 67 66 65 65 65 65 63 67 65 64 63 62 61 60 59 59 60 60 60 61 60 59 58 58 60 61 62 62 62
15 25 37 53 59 61 62 62 62 61 64 64 65 65 66 67 66 65 65 65 65 66 65 64 63 62 61 60 60 60 61 61 61 60 60 60 60 59 58 61 61 61 61
13 17 28 48 58 61 62 63 62 61 63 62 63 64 65 66 66 65 64 65 65 63 64 65 64 63 62 61 60 60 62 61 60 61 60 60 59 60 60 59 61 59 60
22 20 23 38 57 61 62 62 61 61 62 61 61 62 62 64 65 65 64 64 66 62 62 64 64 63 63 62 62 61 61 62 62 61 60 60 58 59 59 59 59 60 60
23 23 22 31 55 60 61 62 61 60 59 60 61 61 62 64 64 64 64 62 63 62 63 63 63 63 62 63 60 60 58 59 61 61 59 58 59 59 58 59 59 60 60
24 26 24 26 49 58 59 60 60 60 58 58 58 59 61 63 64 64 65 62 62 63 63 63 63 62 61 62 62 58 56 52 54 58 59 58 58 59 59 58 60 60 59
21 24 24 27 44 56 59 58 58 58 55 55 57 58 59 62 62 64 64 64 64 64 63 63 64 63 62 60 62 62 59 56 52 52 55 58 57 58 59 60 59 59 60
20 22 25 27 39 54 60 59 59 57 57 56 57 58 61 62 62 63 64 65 64 64 64 64 63 63 63 62 61 61 61 59 57 54 51 54 56 56 57 58 57 58 60
42 40 38 37 39 52 61 61 61 59 58 59 63 63 63 63 64 65 64 63 62 61 58 59 63 64 63 64 62 61 60 58 57 56 54 54 55 55 56 56 57 57 59

GFSSE_sfc_30mbdewp_138.txt.gz
Dewpoint
64 69 71 71 71 72 72 72 71 71 71 72 72 72 71 71 72 72 72 72 72 71 71 70 70 70 70 70 70 70 70 70 70 71 70 69 68 68 68 68 67 68 69
65 68 70 71 71 72 72 72 71 71 71 72 71 71 71 71 72 72 72 72 72 71 71 70 71 71 70 70 69 70 70 70 70 70 69 69 69 69 68 67 67 68 68
66 68 69 70 71 72 72 72 72 71 72 72 71 71 71 72 72 72 71 72 71 70 70 70 71 70 69 69 69 70 70 70 69 68 67 65 65 68 68 68 67 67 66
67 68 68 70 71 72 72 72 72 72 72 72 71 71 72 72 72 71 71 72 71 70 70 70 70 70 69 69 69 69 69 68 68 66 66 63 63 68 68 68 67 67 67
67 68 69 70 71 72 72 72 72 72 71 72 71 72 72 72 72 72 71 71 71 70 70 70 70 70 69 69 69 68 68 67 67 65 64 65 64 67 67 67 66 65 65
65 67 69 70 71 71 72 72 72 71 71 71 71 72 72 72 72 71 71 71 71 71 70 70 70 69 68 68 68 67 66 66 66 65 59 64 65 67 66 67 65 65 65
66 69 69 69 70 71 72 72 72 71 71 71 71 72 72 71 72 71 70 71 71 71 71 70 69 68 68 67 67 66 65 65 64 64 66 66 65 66 66 66 66 65 66
70 71 69 69 70 71 72 72 72 71 71 71 71 71 71 71 71 70 70 71 71 71 70 69 68 68 67 67 66 65 64 64 63 63 65 66 67 66 66 66 66 66 65
67 71 71 69 69 70 71 71 71 71 71 70 71 71 71 71 70 70 70 70 71 70 69 68 67 67 67 66 65 64 63 63 62 63 65 65 67 67 66 66 66 66 66
65 71 70 69 68 68 70 70 70 70 70 70 70 71 70 70 70 70 70 70 70 69 68 67 67 67 66 65 64 64 62 62 61 63 64 65 67 66 66 66 66 66 65
64 66 70 68 68 67 67 69 70 70 70 70 70 70 70 70 70 70 69 69 70 69 67 67 66 66 65 64 64 63 62 61 60 64 63 65 66 66 66 65 65 65 64
46 63 68 68 68 67 65 67 69 70 70 70 70 70 70 68 69 67 68 69 69 68 67 67 66 65 64 64 63 63 62 61 61 63 64 64 65 64 65 65 65 64 63
15 28 62 68 68 67 66 67 66 67 68 69 70 70 69 68 67 66 68 69 69 67 66 66 66 65 63 62 62 62 61 61 61 62 63 64 65 64 64 65 64 63 63
18 22 46 65 68 68 66 66 66 65 66 67 68 69 68 66 67 66 68 68 67 66 64 64 65 64 63 63 63 62 62 61 62 63 63 63 65 65 64 65 64 63 63
18 23 30 51 66 68 67 65 66 65 65 66 67 68 67 66 66 67 67 67 66 65 64 64 63 63 62 62 63 62 61 59 61 62 63 63 63 64 65 64 64 64 63
20 19 25 36 65 67 67 66 65 65 65 65 66 67 68 67 66 67 67 67 66 65 63 63 61 62 62 62 60 61 61 61 59 60 62 62 62 63 64 65 64 63 63
22 22 23 28 39 66 66 65 65 63 64 64 65 67 68 67 67 67 66 66 66 65 64 63 61 62 61 61 61 61 59 61 60 59 61 61 61 61 62 65 65 64 65
28 22 25 26 29 56 65 65 64 64 63 64 63 66 68 67 67 67 66 66 66 66 65 64 64 62 62 59 61 61 60 58 58 61 59 61 60 60 61 62 63 65 64
40 40 27 31 33 32 61 65 65 64 64 62 64 64 68 67 66 66 66 66 66 66 66 64 63 63 60 60 60 61 60 60 59 59 60 60 61 60 60 61 61 62 63
40 44 43 33 34 38 36 64 64 64 63 63 64 62 67 67 66 66 66 66 66 65 65 64 63 63 61 60 58 57 59 62 60 61 60 60 60 60 61 60 60 61 61
39 41 44 46 46 34 35 55 61 61 63 63 63 64 66 68 67 67 66 65 65 64 65 65 64 63 61 62 59 59 59 60 61 61 59 58 59 61 60 62 61 61 60
38 40 43 43 46 41 31 33 60 61 63 63 63 64 64 66 66 66 67 64 65 64 65 65 64 63 62 62 60 59 57 59 61 61 62 60 59 59 60 60 62 62 61
35 38 40 42 43 46 34 32 35 60 61 62 62 63 64 66 66 65 66 66 66 64 64 65 64 62 60 62 61 59 55 54 57 60 61 61 60 60 59 59 60 60 61
33 37 38 41 43 45 35 32 35 46 58 59 60 62 63 64 66 66 65 65 65 64 63 64 65 63 62 60 61 62 61 61 55 55 60 61 61 60 59 58 58 59 59
31 35 36 38 41 44 47 37 34 38 53 59 61 61 62 63 66 66 65 65 64 65 64 65 65 64 63 62 60 60 61 60 59 57 54 57 59 59 60 60 59 59 60
31 33 36 37 38 42 46 50 49 39 44 57 58 60 61 63 65 65 65 64 64 65 65 65 64 63 63 62 62 61 59 58 59 58 56 56 56 58 58 59 60 59 60